Home > Weather > Churu > Past weeks

Flag for India Weather for the Past 2 Weeks in Churu, Rajasthan, India

Now
75 °F

Haze.


Feels Like: 75 °F
Forecast: 47 / 76 °F
Wind: 5 mph from Northwest

Location: Jaipur / Sanganer

Current Time: Feb 11, 2016 at 6:45:42 PM

Latest Report: Feb 11, 2016 at 6:00 PM


Visibility: 2 mi

Pressure: 29.89 "Hg

Humidity: 14%

Dew point: 23 °F

Location of ChuruLocation

Historic Weather in Churu — Graph

°F

Churu Temperature Yesterday

Maximum temperature yesterday: 79 °F (at 3:00 PM)
Minimum temperature yesterday: 54 °F (at 6:00 AM)
Average temperature yesterday: 67 °F

High & Low Weather Summary for the Past Weeks

 TemperatureHumidityPressure
High82 °F (Jan 30, 4:00 PM)94% (Jan 30, 6:00 AM)30.18 "Hg (Jan 30, 6:00 AM)
Low48 °F (Feb 3, 6:00 AM)11% (Feb 11, 3:00 PM)29.80 "Hg (Feb 4, 9:00 PM)
Average66 °F44%30.02 "Hg
* Reported Jan 27 6:00 PM — Feb 11 5:30 PM, Churu, Weather by CustomWeather, © 2016

Note: Actual official high and low records may vary slightly from our data, if they occured in-between our weather recording intervals... More about our weather records

Advertising

Churu Weather History for the Previous 24 Hours

 ConditionsComfort  
Time TempWeatherWind HumidityBarometerVisibility
5:30 PM
Thu, Feb 11
77 °FHaze.6 mph12%29.86 "Hg2 mi
4:00 PM77 °FHaze.8 mph12%29.86 "Hg2 mi
3:00 PM77 °FHaze.13 mph11%29.86 "Hg2 mi
2:30 PM75 °FHaze.9 mph13%29.89 "Hg2 mi
2:00 PM77 °FHaze.12 mph13%29.89 "Hg2 mi
12:00 PM73 °FHaze.7 mph17%29.92 "Hg2 mi
11:00 AM70 °FHaze.6 mph29%29.95 "Hg1 mi
10:30 AM70 °FHaze.5 mph31%29.95 "Hg1 mi
10:00 AM66 °FHaze.5 mph37%29.95 "Hg1 mi
9:00 AM64 °FHaze.No wind43%29.92 "Hg1 mi
8:00 AM57 °FClear.No wind55%29.89 "Hg1 mi
7:00 AM55 °FHaze.No wind55%29.86 "Hg1 mi
6:30 AM57 °FHaze.3 mph55%29.86 "Hg1 mi
6:00 AM57 °FHaze.2 mph51%29.83 "Hg1 mi
5:00 AM57 °FHaze.2 mph51%29.83 "Hg1 mi
3:00 AM59 °FHaze.2 mph48%29.83 "Hg1 mi
2:00 AM59 °FHaze.3 mph45%29.86 "Hg1 mi
1:00 AM61 °FHaze.5 mph42%29.86 "Hg1 mi
12:00 AM61 °FHaze.2 mph42%29.86 "Hg1 mi
11:00 PM
Wed, Feb 10
63 °FHaze.6 mph37%29.89 "Hg1 mi
10:00 PM64 °FHaze.3 mph34%29.89 "Hg1 mi
9:00 PM68 °FHaze.5 mph30%29.89 "Hg1 mi
8:00 PM70 °FHaze.6 mph31%29.86 "Hg1 mi
7:00 PM70 °FHaze.3 mph29%29.86 "Hg1 mi
6:00 PM75 °FHaze.3 mph24%29.86 "Hg2 mi
Weather by CustomWeather, © 2016

See weather overviewHow to use our weather pages